TimeCDT,TemperatureF,Dew PointF,Humidity,Sea Level PressureIn,VisibilityMPH,Wind Direction,Wind SpeedMPH,Gust SpeedMPH,PrecipitationIn,Events,Conditions,WindDirDegrees,DateUTC
12:53 AM,55.9,50.0,80,30.02,-9999.0,North,11.5,20.7,N/A,,Unknown,360,2012-10-27 05:53:00
1:53 AM,55.0,48.9,80,30.02,-9999.0,NNW,10.4,19.6,N/A,,Unknown,340,2012-10-27 06:53:00
2:53 AM,53.1,46.9,80,30.01,-9999.0,North,11.5,20.7,N/A,,Unknown,360,2012-10-27 07:53:00
3:53 AM,53.1,46.9,80,30.00,-9999.0,North,11.5,20.7,N/A,,Unknown,360,2012-10-27 08:53:00
4:53 AM,53.1,46.0,77,30.01,-9999.0,North,9.2,16.1,N/A,,Unknown,350,2012-10-27 09:53:00
5:53 AM,53.1,46.0,77,30.01,-9999.0,North,9.2,-,N/A,,Unknown,10,2012-10-27 10:53:00
6:53 AM,52.0,46.0,80,30.03,-9999.0,Variable,5.8,-,N/A,,Unknown,0,2012-10-27 11:53:00
7:53 AM,52.0,45.0,77,30.04,-9999.0,North,10.4,18.4,N/A,,Unknown,350,2012-10-27 12:53:00
8:53 AM,53.1,46.0,77,30.06,-9999.0,North,8.1,-,N/A,,Unknown,350,2012-10-27 13:53:00
9:53 AM,54.0,45.0,72,30.07,-9999.0,North,10.4,18.4,N/A,,Unknown,350,2012-10-27 14:53:00
10:53 AM,55.9,46.0,69,30.07,-9999.0,North,8.1,17.3,N/A,,Unknown,360,2012-10-27 15:53:00
11:53 AM,61.0,46.9,60,30.04,-9999.0,North,10.4,19.6,N/A,,Unknown,360,2012-10-27 16:53:00
12:53 PM,62.1,48.0,60,30.02,-9999.0,NNW,8.1,20.7,N/A,,Unknown,330,2012-10-27 17:53:00
1:53 PM,64.0,46.9,54,29.99,-9999.0,North,11.5,20.7,N/A,,Unknown,360,2012-10-27 18:53:00
2:53 PM,64.9,48.0,54,29.97,-9999.0,NNW,6.9,19.6,N/A,,Unknown,340,2012-10-27 19:53:00
3:53 PM,64.9,45.0,48,29.97,-9999.0,NNW,10.4,21.9,N/A,,Unknown,340,2012-10-27 20:53:00
4:53 PM,64.0,45.0,50,29.97,-9999.0,NNW,8.1,17.3,N/A,,Unknown,340,2012-10-27 21:53:00
5:53 PM,61.0,45.0,56,29.98,-9999.0,North,8.1,19.6,N/A,,Unknown,350,2012-10-27 22:53:00
6:53 PM,57.0,45.0,64,30.00,-9999.0,North,5.8,-,N/A,,Unknown,360,2012-10-27 23:53:00
7:53 PM,55.9,44.1,64,30.03,-9999.0,North,5.8,-,N/A,,Unknown,350,2012-10-28 00:53:00
8:53 PM,54.0,44.1,69,30.05,-9999.0,North,6.9,-,N/A,,Unknown,360,2012-10-28 01:53:00
9:53 PM,53.1,43.0,69,30.07,-9999.0,North,4.6,-,N/A,,Unknown,350,2012-10-28 02:53:00
10:53 PM,52.0,43.0,71,30.09,-9999.0,Calm,Calm,-,N/A,,Unknown,0,2012-10-28 03:53:00
11:53 PM,52.0,41.0,66,30.09,-9999.0,North,4.6,-,N/A,,Unknown,360,2012-10-28 04:53:00